SCP
0 0 0 0 0 0 0 0 0 0 0 0 0 0 0 0 0 0 0 0 0 0 0 0 0 0 0 0 0 0 0 0 0 0 0 0 0 0 0 0 0 0 0 0
0 0 0 0 0 0 0 0 0 0 0 0 0 0 0 0 0 0 0 0 0 0 0 0 0 0 0 0 0 0 0 0 0 0 0 0 0 0 0 0 0 0 0 0
0 0 0 0 0 0 0 0 0 0 0 0 0 0 0 0 0 0 0 0 0 0 0 0 0 0 0 0 0 0 0 0 0 0 0 0 0 0 0 0 0 0 0 0
0 0 0 0 0 0 0 0 0 0 0 0 0 0 0 0 0 0 0 0 0 0 0 0 0 0 0 0 0 0 0 0 0 0 0 0 0 0 0 0 0 0 0 0
0 0 0 0 0 0 0 0 0 0 0 0 0 0 0 0 0 0 0 0 0 0 0 0 0 0 0 0 0 0 0 0 0 0 0 0 0 0 0 0 0 0 0 0
0 0 0 0 0 0 -0 0 0 0 0 0 0 0 0 0 0 0 0 0 0 0 0 0 0 0 0 0 0 0 0 0 0 0 0 0 0 0 0 0 0 0 0 0
0 0 0 0 0 0 0 0 0 0 0 0 0 0 0 0 0 0 0 0 0 0 0 0 0 0 0 0 0 0 0 0 0 0 0 0 0 0 0 0 0 0 0 0
0 0 0 0 0 0 0 0 0 0 0 0 0 0 0 0 0 0 0 0 0 0 0 0 0 0 0 0 0 0 0 0 0 0 0 0 0 0 0 0 0 0 0 0
0 0 0 0 0 0 0 0 0 0 0 0 0 0 0 0 0 0 0 0 0 0 0 0 0 0 0 0 0 0 0 0 0 0 0 0 0 0 0 0 0 0 0 0
0 0 0 0 0 0 0 0 0 0 0 0 0 0 0 0 0 0 0 0 0 0 0 0 0 0 0 0 0 0 0 0 0 0 0 0 0 0 0 0 0 0 0 0
0 0 0 0 0 0 0 0 0 0 0 0 0 0 0 0 0 0 0 0 0 0 0 0 0 0 0 0 0 0 0 0 0 0 0 0 0 0 0 0 0 0 0 0
0 0 0 0 0 0 0 0 0 0 0 0 0 0 0 0 0 0 0 0 0 0 0 0 0 0 0 0 0 0 0 0 0 0 0 0 0 0 0 0 0 0 0 0
0 0 0 0 0 0 0 0 0 0 0 0 0 0 0 0 0 0 0 0 0 0 0 0 0 0 0 0 0 0 0 0 0 0 0 0 0 0 0 0 0 0 0 0
0 0 0 0 0 0 0 0 0 0 -0 0 0 0 0 0 0 0 0 0 0 0 0 0 0 0 0 0 0 0 0 0 0 0 0 0 0 0 0 0 0 0 0 0
0 0 0 0 0 0 0 0 0 -0 0 0 0 0 0 0 0 0 0 0 0 0 0 0 0 0 0 0 0 0 0 0 0 0 0 0 0 0 0 0 0 0 0 0
0 0 0 0 0 0 0 0 0 0 0 0 0 0 0 0 0 0 0 0 0 0 0 0 0 0 0 0 0 0 0 0 0 0 0 0 0 0 0 0 0 0 0 0
0 0 0 0 0 0 0 0 0 0 0 0 0 0 0 0 0 0 0 0 0 0 0 0 0 0 0 0 0 0 0 0 0 0 0 0 0 0 0 0 0 0 0 0
0 0 0 0 0 0 0 0 0 0 0 0 0 0 0 0 0 0 0 0 0 0 0 0 0 0 0 0 0 0 0 0 0 0 0 0 0 0 0 0 0 0 0 0
0 0 0 0 0 0 0 0 0 0 0 0 0 0 0 0 0 0 0 0 0 0 0 0 0 0 0 0 0 0 0 0 0 0 0 0 0 0 0 0 0 0 0 0
0 0 0 0 0 0 0 0 0 0 0 0 0 0 0 0 0 0 0 0 0 0 0 0 0 0 0 0 0 0 0 0 0 0 0 0 0 0 0 0 0 0 0 0
0 0 0 -0 0 0 0 0 0 0 0 0 0 0 0 0 0 0 0 0 0 0 0 0 0 0 0 0 0 0 0 0 0 0 0 0 0 0 0 0 0 0 0 0
0 0 0 -0 -0 0 0 0 0 0 0 0 0 0 0 0 0 0 0 0 0 0 0 0 0 0 0 0 0 0 0 0 0 0 0 0 0 0 0 0 0 0 0 0
0 0 0 0 0 0 0 0 0 0 0 0 0 0 0 0 0 0 0 0 0 0 0 0 0 0 0 0 0 0 0 0 0 0 0 0 0 0 0 0 0 0 0 0
0 0 0 0 0 0 0 0 0 0 0 0 0 0 0 0 0 0 0 0 0 0 0 0 0 0 0 0 0 0 0 0 0 0 0 0 0 0 0 0 0 0 0 0
0 0 0 0 0 0 0 0 0 0 0 0 0 0 0 0 0 0 0 0 0 0 0 0 0 0 0 0 0 0 0 0 0 0 0 0 0 0 0 0 0 0 0 0
0 0 0 0 0 0 0 0 0 0 0 0 0 0 0 0 0 0 0 0 0 0 0 0 0 0 0 0 0 0 0 0 0 0 0 0 0 0 0 0 0 0 0 0
0 0 0 0 0 0 0 0 0 0 0 0 0 0 0 0 0 0 0 0 0 0 0 0 0 0 0 0 0 0 0 0 0 0 0 0 0 0 0 0 0 0 0 0
Wind_Speed
15 16 14 14 14 12 13 13 12 14 16 16 10 8 9 9 9 9 9 9 10 9 8 9 9 10 10 10 8 7 6 3 3 3 2 2 3 5 6 8 10 10 11 11
14 15 15 18 17 15 15 15 17 18 19 13 9 7 8 9 8 8 9 9 9 10 9 9 9 10 10 10 8 7 6 4 3 3 3 2 3 4 6 7 9 10 10 11
9 9 11 14 13 13 12 11 11 14 14 9 9 8 7 7 6 7 8 8 8 8 8 8 8 8 9 10 8 6 6 5 3 3 3 3 2 3 5 6 7 9 10 10
6 6 11 10 4 6 8 10 9 10 9 7 7 7 7 4 4 6 7 8 8 7 8 8 7 8 8 8 7 6 6 6 5 4 4 4 2 2 4 4 5 8 9 10
4 7 12 10 6 6 6 9 7 8 8 7 6 7 5 2 3 5 6 6 6 7 7 8 8 8 8 8 7 6 6 6 6 4 4 4 3 3 2 3 4 6 7 9
6 7 9 6 1 3 0 7 4 4 5 5 4 5 5 4 5 5 6 5 6 7 7 7 8 7 8 7 7 6 6 6 6 5 5 4 4 3 2 3 4 5 6 7
11 9 10 6 3 5 3 7 2 2 3 4 4 5 5 5 5 5 6 6 7 7 6 7 7 7 7 7 7 7 7 7 6 6 5 5 4 2 2 2 4 4 6 6
8 10 12 4 6 6 6 2 2 3 3 4 5 6 5 5 5 6 6 6 7 6 6 6 6 7 7 8 8 7 6 6 7 6 5 4 3 2 2 3 4 4 5 5
10 11 5 3 5 5 2 4 4 4 4 5 6 6 6 6 6 6 6 6 6 6 7 6 6 6 7 8 8 7 6 6 7 7 5 3 2 2 2 3 3 4 5 5
7 9 8 6 5 4 5 5 5 4 5 5 6 6 6 6 6 6 6 5 5 6 6 7 7 7 7 7 7 6 6 6 6 5 5 3 2 1 2 2 3 4 5 6
10 9 8 8 7 6 5 5 5 5 5 6 6 6 6 6 6 5 5 5 5 5 6 7 7 8 7 7 7 6 6 6 6 4 4 2 2 1 2 2 3 4 4 6
9 6 6 5 4 4 4 4 4 5 6 5 5 5 5 5 5 5 5 5 5 6 6 7 7 8 7 6 6 6 6 6 5 3 3 2 1 2 2 2 2 2 4 5
10 7 6 6 4 3 4 4 4 5 5 5 4 4 5 5 5 5 5 5 5 6 6 7 7 7 7 6 6 6 5 6 5 3 3 2 1 1 1 2 2 2 4 6
6 5 7 5 4 4 4 5 4 4 4 4 4 4 4 4 5 5 5 5 5 6 6 6 7 7 7 6 6 6 6 6 5 3 3 2 2 1 1 1 0 1 2 7
5 5 5 4 4 4 3 3 4 4 4 4 3 3 4 5 6 6 5 5 5 5 6 6 7 7 7 7 7 6 5 4 4 3 3 2 2 1 1 1 2 2 2 4
4 4 4 4 4 4 3 3 4 4 3 3 3 4 4 5 5 5 5 4 5 6 6 6 7 7 7 7 7 5 4 6 6 3 2 2 1 1 2 2 2 2 3 4
4 4 4 4 4 4 4 3 3 3 3 3 4 4 5 5 5 5 5 5 5 6 5 6 6 7 7 6 6 4 4 5 6 4 2 2 2 2 2 2 2 2 3 4
3 3 3 3 3 3 3 2 2 2 2 3 4 4 5 5 6 6 6 6 6 6 5 5 6 7 6 6 5 4 4 4 3 3 2 2 2 2 2 3 3 3 3 3
1 0 0 1 1 1 1 2 1 1 2 3 3 4 5 5 5 6 6 6 6 7 6 6 10 8 6 6 7 4 4 4 4 3 2 2 2 2 2 3 4 4 4 4
1 1 1 1 1 1 1 1 1 2 2 3 3 4 5 5 5 6 6 6 5 5 6 7 7 6 6 6 7 4 4 4 4 3 2 2 2 2 2 3 4 4 4 4
1 1 0 0 1 1 1 1 1 2 3 3 4 5 5 6 6 5 6 6 6 6 6 9 6 5 5 6 7 4 3 3 3 2 1 1 2 2 2 3 4 4 4 4
1 1 1 1 1 1 2 1 2 3 3 4 4 5 5 6 6 5 6 6 6 9 6 4 4 7 8 8 4 3 3 3 2 1 1 2 2 2 2 3 4 4 4 4
1 1 1 1 1 2 2 2 3 3 4 4 4 5 5 5 4 5 6 4 4 9 6 4 7 11 11 6 4 4 3 3 2 1 1 2 2 2 3 3 4 4 5 5
0 0 1 1 1 2 3 4 3 3 4 4 5 5 5 5 4 4 4 8 10 11 6 8 11 11 10 4 3 3 3 2 2 1 2 2 2 3 3 4 4 4 5 5
1 1 1 1 2 2 3 3 3 3 4 3 4 4 4 4 4 4 4 5 9 10 6 8 11 11 6 4 3 3 2 2 1 2 2 2 3 3 3 4 4 5 5 5
1 1 2 2 2 2 2 2 3 3 3 4 4 3 3 3 4 4 4 5 6 9 6 5 5 6 4 4 3 3 2 2 1 1 2 3 3 3 4 4 5 4 5 5
1 1 1 2 2 2 2 2 3 3 3 4 5 4 4 4 4 4 5 4 4 4 4 4 4 3 3 3 3 2 2 1 1 2 2 3 3 3 4 5 4 4 4 5
Wind_Direction
259 270 271 266 262 247 236 237 249 265 274 283 296 307 315 321 324 329 333 341 343 341 341 343 343 339 335 333 334 334 330 323 312 295 265 230 213 202 195 188 181 180 179 178
268 267 266 266 260 252 246 244 248 261 270 278 291 299 304 309 315 326 330 336 340 339 339 341 339 335 333 329 331 335 333 321 319 319 305 256 222 208 196 189 183 178 178 179
270 282 288 263 245 239 238 239 243 254 265 291 298 299 302 304 313 323 325 328 333 332 332 333 331 328 326 325 330 335 332 324 323 327 318 302 254 209 192 187 185 178 178 179
272 283 250 249 226 226 244 251 247 257 270 279 286 296 293 291 320 320 321 324 327 329 328 326 325 325 324 325 327 333 335 332 327 336 321 311 278 229 199 185 186 183 180 181
250 259 269 269 244 221 233 263 251 254 269 283 295 301 289 314 330 312 316 320 320 320 319 320 322 325 323 326 324 331 336 330 326 324 317 309 282 244 209 187 189 187 179 182
237 250 256 260 111 104 57 275 255 246 267 283 303 293 285 328 333 328 327 323 318 317 317 319 320 324 323 323 325 328 328 321 320 316 306 291 271 259 236 194 190 187 177 180
233 248 261 260 154 119 208 251 296 273 269 274 265 254 289 322 323 321 318 316 316 316 315 316 319 323 322 320 320 318 317 317 322 314 304 290 273 245 218 205 182 180 174 175
214 233 249 213 154 191 225 266 292 298 295 289 286 292 302 307 309 312 312 312 315 314 312 314 320 323 319 318 316 314 314 316 317 312 307 301 284 254 206 196 180 174 167 161
207 224 237 197 205 216 238 270 277 281 285 288 290 291 296 298 301 303 304 306 308 308 308 311 318 320 313 313 316 316 315 313 311 308 304 301 286 256 215 195 183 177 170 163
249 250 258 268 264 251 248 257 267 277 284 288 285 287 290 291 293 296 299 304 308 311 312 313 316 315 309 312 314 315 312 309 306 304 301 302 299 255 222 205 191 183 175 164
248 258 271 262 257 259 263 263 268 275 278 278 280 283 287 290 289 290 296 301 306 306 306 308 312 311 313 316 318 314 309 305 300 297 305 301 302 271 241 228 208 197 186 173
242 232 236 254 258 265 270 268 270 276 281 280 272 277 285 288 290 292 294 295 297 298 301 305 308 309 312 315 315 310 308 307 299 296 306 305 313 329 313 252 228 217 192 180
251 262 259 271 278 280 276 277 274 270 272 279 279 277 281 285 290 295 293 289 290 293 295 300 303 305 309 314 312 304 298 299 297 292 294 292 293 290 332 5 50 127 144 141
249 257 264 262 264 273 274 276 274 271 270 275 280 284 288 290 293 294 292 290 290 292 293 296 301 303 309 312 310 303 296 291 290 282 282 272 262 244 210 178 106 68 124 134
245 243 252 265 266 267 264 265 269 269 274 280 284 289 295 295 293 294 299 302 300 297 298 303 304 305 312 310 304 300 297 289 287 280 277 263 246 217 188 167 142 132 116 126
245 250 254 259 262 263 261 260 263 270 277 283 288 295 298 295 293 298 305 308 302 297 299 300 301 307 312 309 306 302 295 291 291 281 273 259 233 191 180 165 151 149 150 146
231 241 247 254 254 256 254 256 262 269 277 282 289 298 301 301 300 299 299 301 298 294 295 296 299 306 306 305 304 301 297 294 290 284 265 245 219 190 182 170 161 153 155 161
229 222 224 235 242 249 257 263 267 275 284 288 298 300 296 295 296 299 303 306 303 299 297 298 303 306 303 303 302 296 293 291 289 275 264 239 213 187 179 166 155 148 146 144
354 303 282 287 264 232 244 267 279 285 294 298 297 293 293 293 296 298 302 303 302 301 302 306 307 307 303 299 299 291 288 290 285 279 266 234 213 176 170 161 154 150 151 145
56 51 53 24 4 344 291 289 291 288 290 293 293 293 295 297 300 299 296 288 281 282 295 304 304 298 297 297 299 293 287 286 280 278 260 198 176 167 161 150 143 141 141 137
127 101 62 339 321 322 302 294 286 287 294 296 289 288 292 296 297 294 289 287 289 294 299 302 303 301 300 302 300 293 290 285 276 267 232 175 153 141 134 130 131 132 131 128
183 191 219 244 267 291 300 296 282 282 287 288 287 288 291 293 293 286 273 273 291 301 303 296 296 299 305 305 296 291 287 278 267 246 183 148 143 138 132 131 130 125 122 123
198 213 232 251 267 283 296 291 278 274 275 278 282 283 282 282 286 286 290 291 299 303 303 293 300 304 307 304 294 290 287 277 265 223 166 151 154 150 142 136 129 126 127 127
239 291 294 302 306 294 289 288 282 277 272 275 274 272 273 282 284 273 274 295 302 303 299 298 303 306 307 302 292 284 275 264 244 194 167 154 151 149 144 138 131 129 131 132
234 255 268 278 278 273 277 289 295 291 286 281 281 277 268 261 269 283 289 294 299 302 300 300 303 306 307 301 293 283 270 250 220 176 166 161 154 148 143 140 137 136 136 138
244 253 257 253 258 271 282 289 292 294 297 297 296 292 286 281 279 282 285 287 289 297 298 297 300 302 299 296 292 284 269 260 234 197 169 158 150 147 143 141 140 140 140 139
254 261 269 277 275 270 277 284 287 291 294 295 297 299 299 297 293 290 289 288 289 292 293 296 301 302 298 296 293 284 272 241 191 170 159 151 149 148 145 143 141 141 140 140